📊 Raw Sensor Data

Showing records 36101 to 36125 of 84,889 total

ID Distance (ft) Battery V Battery A Int Temp (°F) Int Humid (%) Ext Temp (°F) Solar V RSSI SNR Time Stamp
48801 15.5 3.91 0 97 42 91 5.10 -70 8 08/10/2025 12:45 PM
48800 15.5 3.91 0 95 42 91 5.20 -71 7 08/10/2025 12:30 PM
48799 15.5 3.91 0 93 42 89 5.10 -69 8 08/10/2025 12:15 PM
48798 15.5 3.91 0 91 42 91 5.10 -70 8 08/10/2025 12:00 PM
48797 15.5 3.91 0 88 42 83 5.10 -69 7 08/10/2025 11:30 AM
48796 15.5 3.91 0 87 42 82 5.10 -69 7 08/10/2025 11:15 AM
48795 15.6 3.91 0 86 42 87 5.10 -71 8 08/10/2025 11:00 AM
48794 15.6 3.97 0 84 42 85 5.10 -70 8 08/10/2025 10:45 AM
48793 15.5 3.91 0 82 42 79 5.10 -69 8 08/10/2025 10:30 AM
48792 15.5 4.11 0 81 42 84 5.10 -70 8 08/10/2025 10:15 AM
48791 15.5 3.91 0 79 43 81 5.10 -70 8 08/10/2025 10:00 AM
48790 15.5 3.91 0 77 43 76 5.10 -69 8 08/10/2025 09:30 AM
48789 15.5 3.91 0 76 43 81 5.10 -69 8 08/10/2025 09:15 AM
48788 15.5 4.11 0 74 43 79 5.10 -70 8 08/10/2025 09:00 AM
48787 15.5 4.06 0 73 43 76 5.10 -71 8 08/10/2025 08:45 AM
48786 15.5 3.91 0 72 43 78 5.10 -69 8 08/10/2025 08:30 AM
48785 15.5 3.91 0 71 43 77 5.10 -69 8 08/10/2025 08:15 AM
48784 15.5 3.90 0 69 43 77 5.10 -69 8 08/10/2025 08:00 AM
48783 15.4 4.04 44 67 42 76 4.50 -70 8 08/10/2025 07:45 AM
48782 15.4 3.99 5 65 42 71 4.50 -70 7 08/10/2025 07:30 AM
48781 15.3 3.94 7 62 43 73 4.50 -69 8 08/10/2025 07:15 AM
48780 15.3 3.83 0 59 43 67 4.50 -69 8 08/10/2025 07:00 AM
48779 15.2 3.81 0 57 44 63 4.50 -69 8 08/10/2025 06:45 AM
48778 15.1 3.80 -9 56 44 58 4.50 -69 8 08/10/2025 06:30 AM
48777 15.2 3.81 -9 57 44 58 2.10 -69 8 08/10/2025 06:15 AM